Savannah, GA

4:19 PM EDT on May 28, 2017 (GMT -0400)
Savannah International

Weather History for KSAV - August, 2013

Change the Weather History Date:

Wednesday, August 21, 2013

  Actual Average Record
Temperature  
Mean Temperature 81 °F 81 °F  
Max Temperature 87 °F 90 °F 101 °F (1902)
Min Temperature 74 °F 72 °F 62 °F (1961)
Degree Days  
Heating Degree Days 0 0  
Month to date heating degree days 0 0  
Since 1 June heating degree days 0 0  
Since 1 July heating degree days 0 0  
Cooling Degree Days 16 16  
Month to date cooling degree days 363 354  
Year to date cooling degree days 1695 1749  
Since 1 June cooling degree days 1337 1346  
Growing Degree Days 30 (Base 50)    
Moisture  
Dew Point 73 °F    
Average Humidity 84    
Maximum Humidity 94    
Minimum Humidity 74    
Precipitation  
Precipitation 0.31 in 0.21 in 3.40 in (1876)
Month to date precipitation 5.94 4.48  
Year to date precipitation 46.08 32.29  
Sea Level Pressure  
Sea Level Pressure 30.16 in    
Wind  
Wind Speed 4 mph (ENE)    
Max Wind Speed 16 mph    
Max Gust Speed 20 mph    
Visibility 9 miles    
Events Rain , Thunderstorm    
T = Trace of Precipitation, MM = Missing Value Source: NWS Daily Summary

Daily Weather History Graph

Daily Weather History Graph

Search for Another Location

Airport or City:

Trip Planner

Search our weather history database for the weather conditions in past years. The results will help you decide how hot, cold, wet, or windy it might be!

Date:

Astronomy

Aug. 21, 2013 Rise Set
Actual Time 6:53 AM EDT 8:01 PM EDT
Civil Twilight 6:27 AM EDT 8:27 PM EDT
Nautical Twilight 5:57 AM EDT 8:57 PM EDT
Astronomical Twilight 5:26 AM EDT 9:28 PM EDT
Moon 8:17 PM EDT (8/21) 7:26 AM EDT (8/21)
Length of Visible Light 13h 59m
Length of Day
13h 08m
Full, 100% of the Moon is Illuminated
Aug 21
Full
Aug 28
Last Quarter
Sep 5
New
Sep 12
First Quarter
Sep 19
Full

Hourly Weather History & Observations

Time (EDT) Temp. Heat Index Dew Point Humidity Pressure Visibility Wind Dir Wind Speed Gust Speed Precip Events Conditions
12:53 AM 78.1 °F - 75.0 °F 90% 30.16 in 10.0 mi Calm Calm - N/A   Clear
1:53 AM 77.0 °F - 73.9 °F 90% 30.15 in 8.0 mi Calm Calm - N/A   Clear
2:53 AM 75.9 °F - 73.9 °F 94% 30.15 in 7.0 mi North 3.5 mph - N/A   Clear
3:53 AM 75.9 °F - 73.9 °F 94% 30.13 in 10.0 mi Calm Calm - N/A   Clear
4:53 AM 75.0 °F - 73.0 °F 94% 30.13 in 6.0 mi North 3.5 mph - N/A   Clear
5:53 AM 75.0 °F - 73.0 °F 94% 30.14 in 9.0 mi Calm Calm - N/A   Scattered Clouds
6:53 AM 73.9 °F - 72.0 °F 93% 30.16 in 7.0 mi Calm Calm - N/A   Scattered Clouds
7:53 AM 75.9 °F - 73.9 °F 94% 30.18 in 9.0 mi North 3.5 mph - N/A   Scattered Clouds
8:53 AM 80.1 °F 85.4 °F 75.9 °F 87% 30.19 in 10.0 mi NNE 4.6 mph - N/A   Scattered Clouds
9:50 AM 75.2 °F - 66.2 °F 73% 29.91 in 10.0 mi SW 13.8 mph 20.7 mph N/A   Clear
9:53 AM 84.9 °F 94.1 °F 75.9 °F 74% 30.20 in 10.0 mi NE 4.6 mph - N/A   Scattered Clouds
10:53 AM 84.9 °F 93.3 °F 75.0 °F 72% 30.21 in 10.0 mi North 5.8 mph - N/A Thunderstorm Thunderstorm
11:40 AM 82.4 °F 88.2 °F 73.4 °F 74% 30.21 in 9.0 mi East 9.2 mph - 0.00 in Rain , Thunderstorm Light Thunderstorms and Rain
11:53 AM 79.0 °F - 73.9 °F 84% 30.21 in 4.0 mi ESE 6.9 mph - 0.03 in Rain , Thunderstorm Heavy Thunderstorms and Rain
12:33 PM 78.8 °F - 73.4 °F 83% 30.21 in 8.0 mi Calm Calm - 0.12 in Rain Light Rain
12:53 PM 81.0 °F 87.9 °F 77.0 °F 88% 30.19 in 10.0 mi Calm Calm - 0.12 in   Mostly Cloudy
1:31 PM 84.2 °F 94.1 °F 77.0 °F 79% 30.20 in 10.0 mi Calm Calm - N/A Thunderstorm Thunderstorm
1:53 PM 79.0 °F - 71.1 °F 77% 30.20 in 10.0 mi SE 15.0 mph - 0.00 in Rain , Thunderstorm Light Thunderstorms and Rain
2:02 PM 75.2 °F - 69.8 °F 83% 30.21 in 4.0 mi SE 13.8 mph - 0.08 in Rain , Thunderstorm Light Thunderstorms and Rain
2:18 PM 75.2 °F - 69.8 °F 83% 30.21 in 2.5 mi ESE 6.9 mph - 0.13 in Rain , Thunderstorm Light Thunderstorms and Rain
2:30 PM 75.2 °F - 69.8 °F 83% 30.20 in 8.0 mi East 6.9 mph - 0.15 in Rain , Thunderstorm Light Thunderstorms and Rain
2:44 PM 78.8 °F - 71.6 °F 78% 30.19 in 10.0 mi NE 5.8 mph - 0.15 in   Mostly Cloudy
2:53 PM 78.1 °F - 72.0 °F 81% 30.19 in 10.0 mi NNW 5.8 mph - 0.15 in   Mostly Cloudy
3:09 PM 77.0 °F - 71.6 °F 83% 30.19 in 10.0 mi NNE 4.6 mph - N/A Thunderstorm Thunderstorm
3:42 PM 75.2 °F - 71.6 °F 89% 30.15 in 10.0 mi SE 6.9 mph - 0.01 in   Mostly Cloudy
3:53 PM 75.9 °F - 70.0 °F 82% 30.14 in 10.0 mi ESE 10.4 mph - 0.01 in   Mostly Cloudy
4:53 PM 80.1 °F 84.2 °F 73.0 °F 79% 30.16 in 10.0 mi NNW 3.5 mph - N/A   Mostly Cloudy
5:53 PM 84.0 °F 91.9 °F 75.0 °F 74% 30.13 in 10.0 mi Calm Calm - N/A   Mostly Cloudy
6:53 PM 82.9 °F 90.2 °F 75.0 °F 77% 30.12 in 10.0 mi SSE 6.9 mph - N/A   Mostly Cloudy
7:53 PM 82.0 °F 89.4 °F 75.9 °F 82% 30.14 in 10.0 mi SSE 4.6 mph - N/A   Mostly Cloudy
8:53 PM 79.0 °F - 75.9 °F 90% 30.13 in 10.0 mi North 3.5 mph - N/A   Mostly Cloudy
9:53 PM 78.1 °F - 75.0 °F 90% 30.16 in 10.0 mi North 3.5 mph - N/A   Scattered Clouds
10:53 PM 78.1 °F - 75.0 °F 90% 30.17 in 10.0 mi Calm Calm - N/A   Scattered Clouds
11:53 PM 77.0 °F - 73.9 °F 90% 30.16 in 10.0 mi Calm Calm - N/A   Scattered Clouds